Location: *
(46.1833°N, 22.7667°E)
Time: 04:35:43
(UTC+00:00)

NOSS 3-3 (A) - Pass Details

Date: 17 September 2019
Orbit: 849 x 1363 km, 63.4° (Epoch: 08 October)

Event Time Altitude Azimuth Distance (km) Brightness Sun altitude
Rises 17:04:58 0° 209° (SSW) 3,446 7.2 -5.6°
Reaches altitude 10° 17:07:21 10° 207° (SSW) 2,546 6.4 -6.0°
Maximum altitude 17:13:13 72° 124° (SE) 1,000 3.9 -7.0°
Drops below altitude 10° 17:19:48 10° 42° (NE) 2,851 6.2 -8.1°
Sets 17:22:36 0° 40° (NE) 3,888 6.9 -8.6°
